Regional Weather Roundup
Issued by NWS

Home | Current Version | Previous Version | Graphics & Text | Print | Product List | Glossary On
Versions: 1 2 3 4 5 6 7 8 9 10 11 12 13 14 15 16 17 18 19 20 21 22 23 24 25 26 27 28 29 30 31 32 33 34 35 36 37 38 39 40 41 42 43 44 45 46 47 48 49 50
000
ASUS43 KMPX 201501
RWRMN
WEATHER ROUNDUP FOR MINNESOTA
NATIONAL WEATHER SERVICE TWIN CITIES/CHANHASSEN MN
1000 AM CDT FRI APR 20 2018


NOTE: "FAIR" INDICATES FEW OR NO CLOUDS BELOW 12,000 FEET WITH NO
SIGNIFICANT WEATHER AND/OR OBSTRUCTIONS TO VISIBILITY. N/A MEANS
CURRENT SKY AND/OR WEATHER CONDITIONS ARE NOT AVAILABLE.

MNZ060>063-068>070-201600-
   Twin Cities Metro

CITY           SKY/WX    TMP DP  RH WIND       PRES   REMARKS
TWIN CITIES    PTSUNNY   41  26  55 CALM      30.51S
ST PAUL        FAIR      41  26  55 CALM      30.52S
CRYSTAL        FAIR      42  19  39 CALM      30.50R
BLAINE         PTSUNNY   41  25  52 CALM      30.49F
LAKEVILLE      FAIR      36  28  75 CALM      30.51R
EDEN PRAIRIE   FAIR      38  26  62 CALM      30.50S
SOUTH ST PAUL  FAIR      41  25  52 CALM      30.51S
LAKE ELMO      FAIR      37  28  70 CALM      30.52S
$$
MNZ001>005-007-008-013>017-022>024-027-028-201600-
   Northwest Minnesota

CITY           SKY/WX    TMP DP  RH WIND       PRES   REMARKS
BEMIDJI        FAIR      46  29  50 W3        30.42F
HALLOCK        FAIR      46  37  71 S9        30.41R
ROSEAU         FAIR      46  34  61 CALM      30.41S
WARROAD        FAIR      46  36  66 CALM      30.42S
THIEF RVR FALL FAIR      43  33  68 S6        30.43S
CROOKSTON      FAIR      45  36  70 SW7       30.44S
FOSSTON        FAIR      45  28  53 SW6       30.43S
DETROIT LAKES  FAIR      46  27  46 CALM      30.45R
MOORHEAD       FAIR      45  34  65 S7        30.44F
PARK RAPIDS    FAIR      45  29  53 CALM      30.44S
MAHNOMEN       FAIR      46  26  46 SW6       30.43S
$$
MNZ006-009>011-018-025>026-201600-
   North Central Minnesota

CITY           SKY/WX    TMP DP  RH WIND       PRES   REMARKS
BAUDETTE       FAIR      46  30  53 CALM      30.42S
FLAG ISLAND    FAIR      37  28  70 SE5       30.40S
INTL FALLS     FAIR      47  26  44 NW3       30.42S
WASKISH        CLOUDY    46  30  53 W3        30.43S
BIG FORK       FAIR      48  27  43 CALM      30.42F
LONGVILLE      FAIR      46  28  49 CALM      30.44S
GRAND RAPIDS   FAIR      44  29  55 CALM      30.46S
CRANE LAKE     FAIR      41  21  45 CALM      30.45S
ORR            FAIR      45  18  33 CALM      30.41S
COOK           FAIR      43  19  39 CALM      30.44S
WALKER         FAIR      46  29  51 W3        30.43S
$$
MNZ012-019>021-037-201600-
   Northeast Minnesota

CITY           SKY/WX    TMP DP  RH WIND       PRES   REMARKS
DULUTH         FAIR      49  30  48 W5        30.44S
ELY            FAIR      45  14  29 CALM      30.43S
HIBBING        FAIR      44  24  45 CALM      30.43F
EVELETH        FAIR      44  23  43 CALM      30.44F
DULUTH HARBOR  FAIR      46  30  53 S7        30.46F
TWO HARBORS    FAIR      57  32  38 SW5       30.42S
SILVER BAY     FAIR      54  16  22 SW6       30.41S
GRAND MARAIS     N/A     38  28  67 CALM      30.44R
G MARAIS ARPRT FAIR      50   7  17 S5        30.42S
$$
MNZ029>031-032-039>041-046>048-054>057-064-201600-
   West Central Minnesota

CITY           SKY/WX    TMP DP  RH WIND       PRES   REMARKS
FERGUS FALLS   FAIR      45  27  49 S8        30.43F
WHEATON        CLOUDY    39  28  65 SE7       30.48S
MORRIS         CLOUDY    39  28  65 S7        30.46R
ALEXANDRIA     FAIR      45  20  36 SW7       30.46S
ELBOW LAKE     FAIR      42  27  56 S7        30.47R
WADENA         FAIR      45  30  57 CALM      30.45R
GLENWOOD       FAIR      43  25  49 S7        30.47R
APPLETON       CLOUDY    39  25  56 S5        30.47R
BENSON         CLOUDY    43  23  45 SW10      30.49R
ORTONVILLE     PTSUNNY   37  28  70 SE3       30.46R
MADISON          N/A     37  28  70 SE5       30.46S
WILLMAR        FAIR      39  28  65 S6        30.51R
$$
MNZ033>034-036-042>043-049>051-058-059-201600-
   Central Minnesota

CITY           SKY/WX    TMP DP  RH WIND       PRES   REMARKS
ST CLOUD       FAIR      41  26  55 S3        30.48S
SAUK CENTRE    FAIR      41  22  46 S3        30.48R
PAYNESVILLE    FAIR      41  26  54 CALM      30.48S
AITKIN         FAIR      45  28  53 SW3       30.44S
PINE RIVER     FAIR      45  27  49 CALM      30.47S
BRAINERD       FAIR      46  27  47 SW3       30.46F
STAPLES        FAIR      45  28  53 CALM      30.46R
LONG PRAIRIE   FAIR      43  23  45 CALM      30.47R
LITTLE FALLS   FAIR      41  19  42 CALM      30.48S
LITCHFIELD     FAIR      43  28  56 CALM      30.49S
BUFFALO        FAIR      39  25  58 CALM      30.51S
MAPLE LAKE     FAIR      40  30  65 CALM      30.50S
HUTCHINSON     FAIR      37  28  71 SE3       30.51S
$$
MNZ037-044-045-052-053-201600-
   East Central Minnesota

CITY           SKY/WX    TMP DP  RH WIND       PRES   REMARKS
PRINCETON      FAIR      46  25  42 CALM      30.49S
MORA           FAIR      41  27  56 CALM      30.50S
CAMBRIDGE      FAIR      46  27  46 CALM      30.50S
RUSH CITY      FAIR      42  28  58 CALM      30.49F
MOOSE LAKE     FAIR      45  25  45 SW3       30.45S
HINCKLEY       FAIR      45  32  61 CALM      30.48S
CLOQUET        FAIR      50  25  37 SW5       30.44S
MCGREGOR       FAIR      48  30  49 CALM      30.46S
$$
MNZ071>073-080-081-089-090-097-098-201600-
   Southwest Minnesota

CITY           SKY/WX    TMP DP  RH WIND       PRES   REMARKS
MONTEVIDEO     CLOUDY    41  21  45 SW6       30.48R
GRANITE FALLS  CLOUDY    37  27  66 SE6       30.50R
CANBY          MOSUNNY   35  25  65 CALM      30.46F
MARSHALL       MOSUNNY   36  24  62 SE6       30.47S
REDWOOD FALLS  MOSUNNY   34  27  75 SE9       30.49R WCI  27
OLIVIA         CLOUDY    39  30  70 S7        30.49R
PIPESTONE      CLOUDY   N/A N/A N/A S6        30.43S
WINDOM         MOSUNNY   36  16  44 SE8       30.47S
WORTHINGTON    PTSUNNY   36  25  64 S10       30.45S
JACKSON        CLOUDY    32  23  69 SE7       30.47S WCI  26
TRACY          CLOUDY    38  26  62 S13       30.45S
SLAYTON        MOSUNNY   33  26  75 S9        30.45S WCI  26
$$
MNZ065>067-074>077-082>085-091>093-201600-
   South Central Minnesota

CITY           SKY/WX    TMP DP  RH WIND       PRES   REMARKS
MANKATO        FAIR      37  27  67 SE6       30.51R
NEW ULM        CLOUDY    34  21  60 S6        30.50S WCI  29
ST JAMES       CLOUDY    28  21  74 SE7       30.51R WCI  21
FAIRMONT       CLOUDY    33  22  63 S5        30.50S WCI  29
GLENCOE        FAIR      37  29  74 CALM      30.49S
OWATONNA       FAIR      43  28  56 E3        30.49F
WASECA         FAIR      36  28  75 SE5       30.51S
ALBERT LEA     FAIR      36  21  55 E5        30.50S
$$
MNZ078>079-086>088-094>096-201600-
   Southeast Minnesota

CITY           SKY/WX    TMP DP  RH WIND       PRES   REMARKS
ROCHESTER      FAIR      39  31  72 CALM      30.51S
RED WING       FAIR      39  25  56 CALM      30.51S
STANTON        FAIR      37  30  77 CALM      30.50S
DODGE CENTER   FAIR      37  28  70 CALM      30.50F
WINONA         FAIR      39  28  65 CALM      30.51S
AUSTIN         FAIR      36  25  64 E5        30.50S
PRESTON        FAIR      39  23  52 CALM      30.51F
$$
ABBREVIATIONS USED IN REMARKS
   TC - TEMPERATURES IN CELSIUS
  WCI - WIND CHILL INDEX
   HX - HEAT INDEX
  VSB - VISIBILITY
$$




USA.gov is the U.S. government's official web portal to all federal, state and local government web resources and services.